Weather Roundup
Issued by NWS Chicago, IL

Home | Current Version | Previous Version | Graphics & Text | Print | Product List | Glossary On
Versions: 1 2 3 4 5 6 7 8 9 10 11 12 13 14 15 16 17 18 19 20 21 22 23 24 25 26 27 28 29 30 31 32 33 34 35 36 37 38 39 40 41 42 43 44 45 46 47 48 49 50
415
NZUS59 KLOT 260312
HRRLOT

CHICAGO AREA WEATHER ROUNDUP
NATIONAL WEATHER SERVICE CHICAGO/ROMEOVILLE IL
900 PM CST SAT FEB 25 2017

NOTE: "FAIR" INDICATES FEW OR NO CLOUDS BELOW 12,000 FEET WITH NO
SIGNIFICANT WEATHER AND/OR OBSTRUCTIONS TO VISIBILITY.

* THESE STATIONS ARE NOT UNDER NWS QUALITY CONTROL. THEY ALSO MAY NOT
  REPORT WEATHER SUCH AS PRECIPITATION OR FOG.

ILZ005-006-012>014-019>023-260400-
NORTHEAST ILLINOIS

CITY           SKY/WX    TMP DP  RH WIND       PRES   REMARKS
OHARE          CLOUDY    25  15  66 W9        30.01R WCI  15
MIDWAY         CLOUDY    26  13  57 W10       30.03R WCI  16
AURORA         CLOUDY    25  17  72 W10       30.04R WCI  15
LANSING*       CLOUDY    25  16  69 W8        30.03R WCI  16
JOLIET*        CLOUDY    26  17  66 W5        30.06R WCI  21
WAUKEGAN       CLOUDY    23  13  65 W6        29.99R WCI  16
DUPAGE AIRPORT CLOUDY    24  14  65 W12       30.02R WCI  13
WHEELING       CLOUDY    24  13  62 W7        30.03R WCI  16
KANKAKEE*      CLOUDY    26  18  72 W7        30.05R WCI  18
MORRIS*        CLOUDY    25  19  75 W8        30.04R WCI  17
LEWIS AIRPORT* CLOUDY    25  18  76 NW10      30.04R WCI  15
NORTHERLY ISL    N/A     26  16  65 W12         N/A  WCI  16
$$

WIZ051-052-058>065-066-070>072-260400-
SOUTHEAST WISCONSIN

CITY           SKY/WX    TMP DP  RH WIND       PRES   REMARKS
MILWAUKEE      PTCLDY    24  10  55 W8        29.98R WCI  15
KENOSHA*       CLOUDY    22  13  68 W8        29.99R WCI  12
RACINE*        CLEAR     22  11  62 W9        30.00R WCI  12
WAUKESHA       CLEAR     21  10  63 W12       29.98R WCI   9
WEST BEND      CLEAR     19  14  79 W5        29.96R WCI  13
$$

INZ001>003-010>013-019-020-260400-
NORTHWEST INDIANA

CITY           SKY/WX    TMP DP  RH WIND       PRES   REMARKS
GARY*          MOCLDY    27  12  54 W12       30.04R WCI  16
MICHIGAN CITY* NOT AVBL
RENSSELAER*    NOT AVBL
VALPARAISO     CLOUDY    26  15  63 W9        30.02R WCI  17
$$

LMZ740>746-260400-
SOUTHERN LAKE MICHIGAN

STATION/POSITION TIME  SKY/WX   TEMP WIND        PRES    VSBY
                                AIR  DIR/SP/G
                 (UTC)          (F)  (DEG/KT/KT) (MB)    (MI)
HARRISON CRIB    0240            27  280/ 14/ 18   N/A
BURNHAM HARBOR   0300            26  250/  8/ 13   N/A
CALUMET HARBOR   0248            25  270/  6/  9 1016.2R
BURNS HARBOR     0240            28  290/ 13/ 19 1016.9R
MICHIGAN CITY    0240            26  260/ 15/ 17   N/A
$$

ABBREVIATIONS USED IN REMARKS
   TC - TEMPERATURE IN CELSIUS
  WCI - WIND CHILL INDEX
   HX - HEAT INDEX
  VSB - VISIBILITY
$$




USA.gov is the U.S. government's official web portal to all federal, state and local government web resources and services.